Погода Кайластуй

Погода Кайластуй : погода сейчас, прогноз погоды и архив. Всё, что Вы хотите узнать о погоде Кайластуй!

Хотите узнать прогноз погоды Кайластуй? Тогда Вам сюда: Погода Кайластуй

Поиск расширенной информации на нашем сайте:

Другие новости

Новости СМИ2

Главная страница сайта

Новости сайта

03.07.2017

Напоминаем, что на нашем специализированном сайте Метеоцентр.Азия вы можете получить высокодетализированные автоматические прогнозы погоды по пунктам России, СНГ и мира в авиационном формате (включающие направление и скорость ветра, видимость, явления погоды, количество и форму облачности, нижнюю и верхнюю границу облачности).


Погода Кайластуй - сегодня

Время (UTC), дата Ветер
(°,м/с) 
Видим.   Явления Облачность Т
(°С)
Тd
(°С)
f(%) Тe
(°С)
Pmin
(гПа)
dP
(гПа)
Po
(мм)
O2
(г/м3)
Тmin Tmax R s Состояние
почвы
09 17.04.18 310 (СЗ) 4{10}  20000 м    ясно 
+16.4 -13.9 11 +16  1005.2  -0.8  707  270           
15 17.04.18 тихо ()   20000 м    ясно 
+3 -13.5 29 +3  1009.9  0.6  708  283           
18 17.04.18 040 (СВ) 20000 м    ясно 
+0.5 -11.9 39 +1  1009  -1.4  707  285           
21 17.04.18 050 (СВ) 20000 м    3/0 верхняя 
[Ci fib]
-1.7 -11.7 46 -1  1009.9  0.3  707  288           
03 18.04.18 060 (СВ) 20000 м    10/0 средняя 
[As op]
+9.4 -10.1 24 +9  1006.3  -0.4  707  276           
09 18.04.18 110 (В) 20000 м    10/5 1000 м верхняя 
[Cu med, cong|Cs]
+11.6 -3.3 35 +11  1005.1  706  273           
15 18.04.18 330 (СЗ) 20000 м    ясно 
+3.1 -3.6 61 +4  1009.8  1.2  708  282           
18 18.04.18 200 (Ю) 20000 м    ясно 
-2.3 -4.8 83 -4  1012.3  709  289           
21 18.04.18 350 (С) 20000 м    ясно 
-3.2 -4.9 88 -3  1013.8  1.2  710  290           
03 19.04.18 240 (ЮЗ) 20000 м    10/0 верхняя 
[Cs]
+14.1 +0.7 40 +14  1009.6  -1.4  710  272           
15 19.04.18 040 (СВ) 3{10}  20000 м    ясно 
+6.7 -3.2 49 +6  1005.2  0.6  706  278           
18 19.04.18 060 (СВ) 20000 м    ясно 
+4.6 -1.5 65 +3  1006.2  0.5  706  280           
15 20.04.18 360 (С) 20000 м    6/0 верхняя 
[Cs]
+2.3 -16.5 23 1020.1  1.7  715  287           
18 20.04.18 360 (С) 20000 м    ясно 
-0.9 -17.3 28 -4  1023.7  2.6  717  291           
21 20.04.18 тихо ()   20000 м    ясно 
-1.9 -17.2 30 -2  1026.5  2.4  719  293           
03 21.04.18 340 (С) 20000 м    ясно 
+9.4 -16.6 14 +9  1026  721  282           
06 21.04.18 330 (СЗ) 20000 м    3/0 верхняя 
[Ci fib]
+13.3 -18.2 10 +14  1023.6  -1.4  719  278           
09 21.04.18 190 (Ю) 4{10}  20000 м    3/0 верхняя 
[Ci]
+13.1 -16.6 11 +13  1023  -0.6  719  278           
12 21.04.18 270 (З) 20000 м    ясно 
+6.7 -15.9 18 +5  1025.8  1.3  720  284    +14.1       
15 21.04.18 230 (ЮЗ) 6-10{10}  20000 м    ясно 
+4.8 -15.9 21 +2  1027.6  1.2  721  287           
18 21.04.18 140 (ЮВ) 1{10}  20000 м    ясно 
-3.1 -12.7 47 -3  1030.3  0.7  721  295           
21 21.04.18 140 (ЮВ) 20000 м    ясно 
-5.9 -12.9 58 -6  1031.8  0.7  722  298           
03 22.04.18 220 (ЮЗ) 20000 м    3/0 верхняя 
[Ci fib]
+15.7 -13.6 12 +16  1026.7  -0.8  722  276           
06 22.04.18 240 (ЮЗ) 6{10}  20000 м    4/0 верхняя 
[Ci]
+17.4 -14 10 +17  1024.6  -1.6  721  274           
09 22.04.18 230 (ЮЗ) 6{13}  20000 м    4/0 верхняя 
[Ci]
+16.4 -13.5 12 +16  1023.5  -1.2  720  275           
Время (UTC), дата Ветер
(°,м/с) 
Видим.   Явления Облачность Т
(°С)
Тd
(°С)
f(%) Тe
(°С)
Pmin
(гПа)
dP
(гПа)
Po
(мм)
O2
(г/м3)
Тmin Tmax R s Состояние
почвы

Для получения пояснительной информации подведите курсор к названию столбца.

ПОГОДА Кайластуй - архив

Всё, что Вы хотите узнать о погоде Кайластуй - удобно и подробно!

Выберите нужную дату (начиная с 1 января 2015* года) и нажмите кнопку "Найти".
Будут отображены архивные сводки погоды по пункту Кайластуй, начиная с указанной даты.


Отображать данные в формате CSV (для использования в таблицах Excel)


Внимание! Наш архив погоды предназначен исключительно для личного некоммерческого использования в познавательных целях. Если Вам необходимы официальные справки о состоянии погоды (для производственных, юридических, коммерческих и т.п. целей), обращайтесь в органы Росгидромета.

*Примечание: данная дата относится к архиву по метеостанциям СССР (Россия, СНГ, Балтия).
Архив по метеостанциям Зарубежной Европы и Азии (кроме Китая) хранится 10 дней, по другим регионам земного шара (Китай, Африка, Америка, Австралия, Океания) - 1 день.

Кайластуй - район местоположения метеостанции


Название, широта, долгота, высота метеостанции:
Кайластуй 49.8°ш. 118.4°д. 550 м над ур. моря [Российская Федерация]

Дополнительная информация

В oтличие oт бoльшинства пoгoдных сайтoв мы публикуем пoдрoбную метеoинфoрмацию в детальнoм прoфессиoнальнoм фoрмате.

Характеристики температуры и влажнoсти вoздуха измеряются на высoте 2 м в тени вдали oт зданий и деревьев.
Скoрoсть ветра измеряется на высoте 10 м (на урoвне рoста челoвека скoрoсть ветра ниже в 1.5-2 раза). Если метеoстанция нахoдится в гoрoде или в лесу, тo скoрoсть ветра занижена на 2-4 м/с пo сравнению с oткрытым местoм. Скoрoсть ветра над акватoриями крупных рек и oзёр, а также на вершинах хoлмoв на 2-5 м/с выше, чем в oбычных услoвиях.
Атмoсфернoе давление в разных тoчках местнoсти мoжет значительнo oтличаться oт давления на метеoстанции, в зависимoсти oт услoвий рельефа (при пoдъёме на 10 м давление пoнижается примернo на 1 мм рт.ст.).